Location: Unspecified
(50.1700°N, 6.8600°E)
Time: 05:55:11
(UTC+00:00)

CZ-2C R/B - Pass Details

Date: 24 January 2019
Orbit: 669 x 784 km, 98.1° (Epoch: 21 February)

Event Time Altitude Azimuth Distance (km) Brightness Sun altitude
Rises 03:36:22 0° 23° (NNE) 3,101 6.1 -35.1°
Reaches altitude 10° 03:38:54 10° 35° (NE) 2,196 5.3 -34.7°
Maximum altitude 03:43:02 28° 94° (E) 1,344 4.2 -34.0°
Enters shadow 03:46:06 16° 144° (SE) 1,875 4.7 -33.5°
